Year,Month,Day,Hour,Minute,Value (Times are PST for barometer in hPa)
2011,11,30,00,00,1024.48
2011,11,30,00,01,1024.52
2011,11,30,00,02,1024.55
2011,11,30,00,03,1024.52
2011,11,30,00,04,1024.55
2011,11,30,00,05,1024.60
2011,11,30,00,06,1024.66
2011,11,30,00,07,1024.75
2011,11,30,00,08,1024.64
2011,11,30,00,09,1024.59
2011,11,30,00,10,1024.61
2011,11,30,00,11,1024.76
2011,11,30,00,12,1024.79
2011,11,30,00,13,1024.83
2011,11,30,00,14,1024.89
2011,11,30,00,15,1024.89
2011,11,30,00,16,1024.92
2011,11,30,00,17,1024.93
2011,11,30,00,18,1024.99
2011,11,30,00,19,1025.00
2011,11,30,00,20,1025.04
2011,11,30,00,21,1025.10
2011,11,30,00,22,1025.16
2011,11,30,00,23,1025.16
2011,11,30,00,24,1025.21
2011,11,30,00,25,1025.26
2011,11,30,00,26,1025.27
2011,11,30,00,27,1025.33
2011,11,30,00,28,1025.31
2011,11,30,00,29,1025.39
2011,11,30,00,30,1025.30
2011,11,30,00,31,1025.26
2011,11,30,00,32,1025.26
2011,11,30,00,33,1025.27
2011,11,30,00,34,1025.34
2011,11,30,00,35,1025.37
2011,11,30,00,36,1025.37
2011,11,30,00,37,1025.37
2011,11,30,00,38,1025.40
2011,11,30,00,39,1025.37
2011,11,30,00,40,1025.37
2011,11,30,00,41,1025.34
2011,11,30,00,42,1025.37
2011,11,30,00,43,1025.34
2011,11,30,00,44,1025.41
2011,11,30,00,45,1025.48
2011,11,30,00,46,1025.53
2011,11,30,00,47,1025.53
2011,11,30,00,48,1025.58
2011,11,30,00,49,1025.63
2011,11,30,00,50,1025.60
2011,11,30,00,51,1025.60
2011,11,30,00,52,1025.60
2011,11,30,00,53,1025.61
2011,11,30,00,54,1025.66
2011,11,30,00,55,1025.60
2011,11,30,00,56,1025.59
2011,11,30,00,57,1025.54
2011,11,30,00,58,1025.60
2011,11,30,00,59,1025.64
2011,11,30,01,00,1025.65
2011,11,30,01,01,1025.71
2011,11,30,01,02,1025.79
2011,11,30,01,03,1025.91
2011,11,30,01,04,1025.95
2011,11,30,01,05,1026.05
2011,11,30,01,06,1026.09
2011,11,30,01,07,1026.17
2011,11,30,01,08,1026.05
2011,11,30,01,09,1026.13
2011,11,30,01,10,1026.09
2011,11,30,01,11,1026.15
2011,11,30,01,12,1026.19
2011,11,30,01,13,1026.30
2011,11,30,01,14,1026.41
2011,11,30,01,15,1026.38
2011,11,30,01,16,1026.38
2011,11,30,01,17,1026.41
2011,11,30,01,18,1026.38
2011,11,30,01,19,1026.39
2011,11,30,01,20,1026.53
2011,11,30,01,21,1026.60
2011,11,30,01,22,1026.69
2011,11,30,01,23,1026.72
2011,11,30,01,24,1026.75
2011,11,30,01,25,1026.79
2011,11,30,01,26,1026.77
2011,11,30,01,27,1026.87
2011,11,30,01,28,1026.93
2011,11,30,01,29,1026.99
2011,11,30,01,30,1027.00
2011,11,30,01,31,1027.06
2011,11,30,01,32,1027.02
2011,11,30,01,33,1027.07
2011,11,30,01,34,1027.13
2011,11,30,01,35,1027.16
2011,11,30,01,36,1027.20
2011,11,30,01,37,1027.26
2011,11,30,01,38,1027.30
2011,11,30,01,39,1027.33
2011,11,30,01,40,1027.37
2011,11,30,01,41,1027.43
2011,11,30,01,42,1027.40
2011,11,30,01,43,1027.40
2011,11,30,01,44,1027.36
2011,11,30,01,45,1027.37
2011,11,30,01,46,1027.43
2011,11,30,01,47,1027.43
2011,11,30,01,48,1027.45
2011,11,30,01,49,1027.39
2011,11,30,01,50,1027.36
2011,11,30,01,51,1027.33
2011,11,30,01,52,1027.36
2011,11,30,01,53,1027.33
2011,11,30,01,54,1027.29
2011,11,30,01,55,1027.23
2011,11,30,01,56,1027.24
2011,11,30,01,57,1027.37
2011,11,30,01,58,1027.43
2011,11,30,01,59,1027.47
2011,11,30,02,00,1027.60
2011,11,30,02,01,1027.64
2011,11,30,02,02,1027.68
2011,11,30,02,03,1027.75
2011,11,30,02,04,1027.85
2011,11,30,02,05,1027.91
2011,11,30,02,06,1028.01
2011,11,30,02,07,1028.01
2011,11,30,02,08,1028.02
2011,11,30,02,09,1028.12
2011,11,30,02,10,1028.21
2011,11,30,02,11,1028.20
2011,11,30,02,12,1028.15
2011,11,30,02,13,1028.28
2011,11,30,02,14,1028.32
2011,11,30,02,15,1028.45
2011,11,30,02,16,1028.48
2011,11,30,02,17,1028.49
2011,11,30,02,18,1028.54
2011,11,30,02,19,1028.51
2011,11,30,02,20,1028.56
2011,11,30,02,21,1028.63
2011,11,30,02,22,1028.69
2011,11,30,02,23,1028.71
2011,11,30,02,24,1028.68
2011,11,30,02,25,1028.65
2011,11,30,02,26,1028.68
2011,11,30,02,27,1028.68
2011,11,30,02,28,1028.72
2011,11,30,02,29,1028.72
2011,11,30,02,30,1028.75
2011,11,30,02,31,1028.79
2011,11,30,02,32,1028.82
2011,11,30,02,33,1028.82
2011,11,30,02,34,1028.79
2011,11,30,02,35,1028.82
2011,11,30,02,36,1028.82
2011,11,30,02,37,1028.79
2011,11,30,02,38,1028.82
2011,11,30,02,39,1028.85
2011,11,30,02,40,1028.82
2011,11,30,02,41,1028.82
2011,11,30,02,42,1028.84
2011,11,30,02,43,1028.79
2011,11,30,02,44,1028.82
2011,11,30,02,45,1028.83
2011,11,30,02,46,1028.89
2011,11,30,02,47,1028.89
2011,11,30,02,48,1028.85
2011,11,30,02,49,1028.82
2011,11,30,02,50,1028.83
2011,11,30,02,51,1028.91
2011,11,30,02,52,1028.82
2011,11,30,02,53,1028.85
2011,11,30,02,54,1028.90
2011,11,30,02,55,1028.99
2011,11,30,02,56,1029.00
2011,11,30,02,57,1029.06
2011,11,30,02,58,1029.02
2011,11,30,02,59,1029.03
2011,11,30,03,00,1029.13
2011,11,30,03,01,1029.19
2011,11,30,03,02,1029.24
2011,11,30,03,06,1029.45
2011,11,30,03,07,1029.53
2011,11,30,03,08,1029.56
2011,11,30,03,09,1029.64
2011,11,30,03,10,1029.54
2011,11,30,03,11,1029.55
2011,11,30,03,12,1029.48
2011,11,30,03,13,1029.40
2011,11,30,03,14,1029.47
2011,11,30,03,15,1029.52
2011,11,30,03,16,1029.52
2011,11,30,03,17,1029.59
2011,11,30,03,18,1029.56
2011,11,30,03,19,1029.57
2011,11,30,03,20,1029.60
2011,11,30,03,21,1029.59
2011,11,30,03,22,1029.57
2011,11,30,03,23,1029.64
2011,11,30,03,24,1029.67
2011,11,30,03,25,1029.70
2011,11,30,03,26,1029.70
2011,11,30,03,27,1029.70
2011,11,30,03,28,1029.70
2011,11,30,03,29,1029.69
2011,11,30,03,30,1029.66
2011,11,30,03,31,1029.61
2011,11,30,03,32,1029.68
2011,11,30,03,33,1029.71
2011,11,30,03,34,1029.76
2011,11,30,03,35,1029.72
2011,11,30,03,36,1029.70
2011,11,30,03,37,1029.70
2011,11,30,03,38,1029.66
2011,11,30,03,39,1029.62
2011,11,30,03,40,1029.57
2011,11,30,03,41,1029.61
2011,11,30,03,42,1029.63
2011,11,30,03,43,1029.64
2011,11,30,03,44,1029.69
2011,11,30,03,45,1029.64
2011,11,30,03,46,1029.68
2011,11,30,03,47,1029.70
2011,11,30,03,48,1029.69
2011,11,30,03,49,1029.68
2011,11,30,03,50,1029.68
2011,11,30,03,51,1029.61
2011,11,30,03,52,1029.63
2011,11,30,03,53,1029.64
2011,11,30,03,54,1029.71
2011,11,30,03,55,1029.73
2011,11,30,03,56,1029.72
2011,11,30,03,57,1029.80
2011,11,30,03,58,1029.81
2011,11,30,03,59,1029.85
2011,11,30,04,00,1029.87
2011,11,30,04,01,1029.91
2011,11,30,04,02,1029.97
2011,11,30,04,03,1029.98
2011,11,30,04,04,1030.02
2011,11,30,04,05,1030.12
2011,11,30,04,06,1030.15
2011,11,30,04,07,1030.21
2011,11,30,04,08,1030.22
2011,11,30,04,09,1030.26
2011,11,30,04,10,1030.35
2011,11,30,04,11,1030.41
2011,11,30,04,12,1030.42
2011,11,30,04,13,1030.45
2011,11,30,04,14,1030.52
2011,11,30,04,15,1030.58
2011,11,30,04,16,1030.69
2011,11,30,04,17,1030.76
2011,11,30,04,18,1030.77
2011,11,30,04,19,1030.76
2011,11,30,04,20,1030.83
2011,11,30,04,21,1030.86
2011,11,30,04,22,1030.88
2011,11,30,04,23,1030.89
2011,11,30,04,24,1030.92
2011,11,30,04,25,1030.93
2011,11,30,04,26,1030.94
2011,11,30,04,27,1030.94
2011,11,30,04,28,1031.01
2011,11,30,04,29,1030.98
2011,11,30,04,30,1030.96
2011,11,30,04,31,1031.01
2011,11,30,04,32,1030.96
2011,11,30,04,33,1030.99
2011,11,30,04,34,1031.02
2011,11,30,04,35,1031.02
2011,11,30,04,36,1031.02
2011,11,30,04,37,1031.03
2011,11,30,04,38,1031.04
2011,11,30,04,39,1031.03
2011,11,30,04,40,1031.07
2011,11,30,04,41,1030.99
2011,11,30,04,42,1031.02
2011,11,30,04,43,1031.13
2011,11,30,04,44,1031.16
2011,11,30,04,45,1031.22
2011,11,30,04,46,1031.35
2011,11,30,04,47,1031.33
2011,11,30,04,48,1031.32
2011,11,30,04,49,1031.27
2011,11,30,04,50,1031.29
2011,11,30,04,51,1031.30
2011,11,30,04,52,1031.33
2011,11,30,04,53,1031.32
2011,11,30,04,54,1031.31
2011,11,30,04,55,1031.39
2011,11,30,04,56,1031.37
2011,11,30,04,57,1031.27
2011,11,30,04,58,1031.15
2011,11,30,04,59,1031.09
2011,11,30,05,00,1031.08
2011,11,30,05,01,1031.00
2011,11,30,05,02,1030.91
2011,11,30,05,03,1030.89
2011,11,30,05,04,1030.96
2011,11,30,05,05,1031.02
2011,11,30,05,06,1031.03
2011,11,30,05,07,1031.10
2011,11,30,05,08,1031.11
2011,11,30,05,09,1031.08
2011,11,30,05,10,1031.18
2011,11,30,05,11,1031.17
2011,11,30,05,12,1031.20
2011,11,30,05,13,1031.22
2011,11,30,05,14,1031.20
2011,11,30,05,15,1031.25
2011,11,30,05,16,1031.25
2011,11,30,05,17,1031.35
2011,11,30,05,18,1031.31
2011,11,30,05,19,1031.36
2011,11,30,05,20,1031.23
2011,11,30,05,21,1031.27
2011,11,30,05,22,1031.19
2011,11,30,05,23,1031.20
2011,11,30,05,24,1031.21
2011,11,30,05,25,1031.17
2011,11,30,05,26,1031.23
2011,11,30,05,27,1031.25
2011,11,30,05,28,1031.20
2011,11,30,05,29,1031.25
2011,11,30,05,30,1031.23
2011,11,30,05,31,1031.28
2011,11,30,05,32,1031.35
2011,11,30,05,33,1031.32
2011,11,30,05,34,1031.43
2011,11,30,05,35,1031.42
2011,11,30,05,36,1031.40
2011,11,30,05,37,1031.44
2011,11,30,05,38,1031.45
2011,11,30,05,39,1031.39
2011,11,30,05,40,1031.37
2011,11,30,05,41,1031.40
2011,11,30,05,42,1031.42
2011,11,30,05,43,1031.37
2011,11,30,05,44,1031.41
2011,11,30,05,45,1031.51
2011,11,30,05,46,1031.59
2011,11,30,05,47,1031.54
2011,11,30,05,48,1031.60
2011,11,30,05,49,1031.60
2011,11,30,05,50,1031.60
2011,11,30,05,51,1031.59
2011,11,30,05,52,1031.57
2011,11,30,05,53,1031.59
2011,11,30,05,54,1031.57
2011,11,30,05,55,1031.63
2011,11,30,05,56,1031.63
2011,11,30,05,57,1031.61
2011,11,30,05,58,1031.66
2011,11,30,05,59,1031.67
2011,11,30,06,00,1031.70
2011,11,30,06,01,1031.71
2011,11,30,06,02,1031.77
2011,11,30,06,03,1031.81
2011,11,30,06,04,1031.88
2011,11,30,06,05,1031.90
2011,11,30,06,06,1031.89
2011,11,30,06,07,1032.01
2011,11,30,06,08,1032.07
2011,11,30,06,09,1032.08
2011,11,30,06,10,1032.14
2011,11,30,06,11,1032.18
2011,11,30,06,12,1032.22
2011,11,30,06,13,1032.23
2011,11,30,06,14,1032.22
2011,11,30,06,15,1032.24
2011,11,30,06,16,1032.25
2011,11,30,06,17,1032.32
2011,11,30,06,18,1032.37
2011,11,30,06,19,1032.33
2011,11,30,06,20,1032.27
2011,11,30,06,21,1032.26
2011,11,30,06,22,1032.20
2011,11,30,06,23,1032.17
2011,11,30,06,24,1032.18
2011,11,30,06,25,1032.21
2011,11,30,06,26,1032.20
2011,11,30,06,27,1032.17
2011,11,30,06,28,1032.14
2011,11,30,06,29,1032.15
2011,11,30,06,30,1032.16
2011,11,30,06,31,1032.15
2011,11,30,06,32,1032.22
2011,11,30,06,33,1032.24
2011,11,30,06,34,1032.23
2011,11,30,06,35,1032.30
2011,11,30,06,36,1032.28
2011,11,30,06,37,1032.35
2011,11,30,06,38,1032.42
2011,11,30,06,39,1032.47
2011,11,30,06,40,1032.58
2011,11,30,06,41,1032.59
2011,11,30,06,42,1032.61
2011,11,30,06,43,1032.62
2011,11,30,06,44,1032.66
2011,11,30,06,45,1032.70
2011,11,30,06,46,1032.65
2011,11,30,06,47,1032.64
2011,11,30,06,48,1032.62
2011,11,30,06,49,1032.69
2011,11,30,06,50,1032.71
2011,11,30,06,51,1032.72
2011,11,30,06,52,1032.78
2011,11,30,06,53,1032.76
2011,11,30,06,54,1032.82
2011,11,30,06,55,1032.89
2011,11,30,06,56,1033.04
2011,11,30,06,57,1033.00
2011,11,30,06,58,1033.10
2011,11,30,06,59,1033.16
2011,11,30,07,00,1033.22
2011,11,30,07,01,1033.22
2011,11,30,07,02,1033.22
2011,11,30,07,03,1033.24
2011,11,30,07,04,1033.37
2011,11,30,07,05,1033.43
2011,11,30,07,06,1033.46
2011,11,30,07,07,1033.51
2011,11,30,07,08,1033.58
2011,11,30,07,09,1033.55
2011,11,30,07,10,1033.50
2011,11,30,07,11,1033.57
2011,11,30,07,12,1033.60
2011,11,30,07,13,1033.66
2011,11,30,07,14,1033.64
2011,11,30,07,15,1033.67
2011,11,30,07,16,1033.72
2011,11,30,07,17,1033.70
2011,11,30,07,18,1033.73
2011,11,30,07,19,1033.71
2011,11,30,07,20,1033.76
2011,11,30,07,21,1033.73
2011,11,30,07,22,1033.69
2011,11,30,07,23,1033.67
2011,11,30,07,24,1033.69
2011,11,30,07,25,1033.67
2011,11,30,07,26,1033.70
2011,11,30,07,27,1033.74
2011,11,30,07,28,1033.75
2011,11,30,07,29,1033.72
2011,11,30,07,30,1033.79
2011,11,30,07,31,1033.77
2011,11,30,07,32,1033.77
2011,11,30,07,33,1033.67
2011,11,30,07,34,1033.72
2011,11,30,07,35,1033.66
2011,11,30,07,36,1033.68
2011,11,30,07,37,1033.82
2011,11,30,07,38,1033.90
2011,11,30,07,39,1033.94
2011,11,30,07,40,1033.98
2011,11,30,07,41,1034.01
2011,11,30,07,42,1034.03
2011,11,30,07,43,1034.04
2011,11,30,07,44,1034.11
2011,11,30,07,45,1034.17
2011,11,30,07,46,1034.18
2011,11,30,07,47,1034.23
2011,11,30,07,48,1034.20
2011,11,30,07,49,1034.20
2011,11,30,07,50,1034.21
2011,11,30,07,51,1034.26
2011,11,30,07,52,1034.34
2011,11,30,07,53,1034.32
2011,11,30,07,54,1034.40
2011,11,30,07,55,1034.38
2011,11,30,07,56,1034.44
2011,11,30,07,57,1034.50
2011,11,30,07,58,1034.66
2011,11,30,07,59,1034.76
2011,11,30,08,00,1034.78
2011,11,30,08,01,1034.78
2011,11,30,08,02,1034.82
2011,11,30,08,03,1034.84
2011,11,30,08,04,1034.83
2011,11,30,08,05,1034.90
2011,11,30,08,06,1034.88
2011,11,30,08,07,1034.88
2011,11,30,08,08,1034.85
2011,11,30,08,09,1034.87
2011,11,30,08,10,1034.85
2011,11,30,08,11,1034.85
2011,11,30,08,12,1034.86
2011,11,30,08,13,1034.92
2011,11,30,08,14,1034.95
2011,11,30,08,15,1034.96
2011,11,30,08,16,1035.03
2011,11,30,08,17,1035.05
2011,11,30,08,18,1035.06
2011,11,30,08,19,1035.13
2011,11,30,08,20,1035.19
2011,11,30,08,21,1035.21
2011,11,30,08,22,1035.29
2011,11,30,08,23,1035.33
2011,11,30,08,24,1035.36
2011,11,30,08,25,1035.43
2011,11,30,08,26,1035.47
2011,11,30,08,27,1035.53
2011,11,30,08,28,1035.59
2011,11,30,08,29,1035.57
2011,11,30,08,30,1035.66
2011,11,30,08,31,1035.70
2011,11,30,08,32,1035.76
2011,11,30,08,33,1035.75
2011,11,30,08,34,1035.72
2011,11,30,08,35,1035.70
2011,11,30,08,36,1035.76
2011,11,30,08,37,1035.75
2011,11,30,08,38,1035.71
2011,11,30,08,39,1035.83
2011,11,30,08,40,1035.83
2011,11,30,08,41,1035.83
2011,11,30,08,42,1035.83
2011,11,30,08,43,1035.83
2011,11,30,08,44,1035.86
2011,11,30,08,45,1035.84
2011,11,30,08,46,1035.90
2011,11,30,08,47,1035.92
2011,11,30,08,48,1035.85
2011,11,30,08,49,1035.81
2011,11,30,08,50,1035.82
2011,11,30,08,51,1035.75
2011,11,30,08,52,1035.72
2011,11,30,08,53,1035.68
2011,11,30,08,54,1035.76
2011,11,30,08,55,1035.74
2011,11,30,08,56,1035.80
2011,11,30,08,57,1035.81
2011,11,30,08,58,1035.88
2011,11,30,08,59,1035.94
2011,11,30,09,00,1035.85
2011,11,30,09,01,1035.96
2011,11,30,09,02,1035.96
2011,11,30,09,03,1035.96
2011,11,30,09,04,1035.97
2011,11,30,09,05,1036.01
2011,11,30,09,06,1036.07
2011,11,30,09,07,1036.11
2011,11,30,09,08,1036.18
2011,11,30,09,09,1036.25
2011,11,30,09,10,1036.31
2011,11,30,09,11,1036.40
2011,11,30,09,12,1036.40
2011,11,30,09,13,1036.39
2011,11,30,09,14,1036.33
2011,11,30,09,15,1036.27
2011,11,30,09,16,1036.27
2011,11,30,09,17,1036.30
2011,11,30,09,18,1036.31
2011,11,30,09,19,1036.39
2011,11,30,09,20,1036.39
2011,11,30,09,21,1036.46
2011,11,30,09,22,1036.40
2011,11,30,09,23,1036.40
2011,11,30,09,24,1036.40
2011,11,30,09,25,1036.40
2011,11,30,09,26,1036.40
2011,11,30,09,27,1036.37
2011,11,30,09,28,1036.39
2011,11,30,09,29,1036.48
2011,11,30,09,30,1036.55
2011,11,30,09,31,1036.60
2011,11,30,09,32,1036.55
2011,11,30,09,33,1036.60
2011,11,30,09,34,1036.58
2011,11,30,09,35,1036.62
2011,11,30,09,36,1036.56
2011,11,30,09,37,1036.68
2011,11,30,09,38,1036.72
2011,11,30,09,39,1036.77
2011,11,30,09,40,1036.74
2011,11,30,09,41,1036.74
2011,11,30,09,42,1036.72
2011,11,30,09,43,1036.82
2011,11,30,09,44,1036.88
2011,11,30,09,45,1036.88
2011,11,30,09,46,1036.88
2011,11,30,09,47,1036.87
2011,11,30,09,48,1036.85
2011,11,30,09,49,1036.92
2011,11,30,09,50,1036.97
2011,11,30,09,51,1036.97
2011,11,30,09,52,1037.09
2011,11,30,09,53,1037.15
2011,11,30,09,54,1037.15
2011,11,30,09,55,1037.17
2011,11,30,09,56,1037.14
2011,11,30,09,57,1037.22
2011,11,30,09,58,1037.26
2011,11,30,09,59,1037.29
2011,11,30,10,00,1037.31
2011,11,30,10,01,1037.42
2011,11,30,10,02,1037.42
2011,11,30,10,03,1037.43
2011,11,30,10,04,1037.49
2011,11,30,10,05,1037.53
2011,11,30,10,06,1037.60
2011,11,30,10,07,1037.62
2011,11,30,10,08,1037.63
2011,11,30,10,09,1037.65
2011,11,30,10,10,1037.59
2011,11,30,10,11,1037.60
2011,11,30,10,12,1037.51
2011,11,30,10,13,1037.57
2011,11,30,10,14,1037.45
2011,11,30,10,15,1037.45
2011,11,30,10,16,1037.46
2011,11,30,10,17,1037.52
2011,11,30,10,18,1037.49
2011,11,30,10,19,1037.51
2011,11,30,10,20,1037.62
2011,11,30,10,21,1037.59
2011,11,30,10,22,1037.63
2011,11,30,10,23,1037.69
2011,11,30,10,24,1037.70
2011,11,30,10,25,1037.74
2011,11,30,10,26,1037.81
2011,11,30,10,27,1037.90
2011,11,30,10,28,1037.95
2011,11,30,10,29,1037.89
2011,11,30,10,30,1037.86
2011,11,30,10,31,1037.86
2011,11,30,10,32,1037.83
2011,11,30,10,33,1037.88
2011,11,30,10,34,1037.99
2011,11,30,10,35,1037.98
2011,11,30,10,36,1038.06
2011,11,30,10,37,1038.03
2011,11,30,10,38,1037.99
2011,11,30,10,39,1037.97
2011,11,30,10,40,1038.03
2011,11,30,10,41,1038.03
2011,11,30,10,42,1038.02
2011,11,30,10,43,1037.98
2011,11,30,10,44,1038.05
2011,11,30,10,45,1037.96
2011,11,30,10,46,1037.97
2011,11,30,10,47,1037.99
2011,11,30,10,48,1037.96
2011,11,30,10,49,1037.96
2011,11,30,10,50,1037.96
2011,11,30,10,51,1037.93
2011,11,30,10,52,1037.95
2011,11,30,10,53,1037.91
2011,11,30,10,54,1038.03
2011,11,30,10,55,1038.07
2011,11,30,10,56,1038.14
2011,11,30,10,57,1038.17
2011,11,30,10,58,1038.20
2011,11,30,10,59,1038.22
2011,11,30,11,00,1038.30
2011,11,30,11,01,1038.34
2011,11,30,11,02,1038.38
2011,11,30,11,03,1038.41
2011,11,30,11,04,1038.44
2011,11,30,11,05,1038.47
2011,11,30,11,06,1038.50
2011,11,30,11,07,1038.49
2011,11,30,11,08,1038.45
2011,11,30,11,09,1038.49
2011,11,30,11,10,1038.48
2011,11,30,11,11,1038.54
2011,11,30,11,12,1038.58
2011,11,30,11,13,1038.60
2011,11,30,11,14,1038.58
2011,11,30,11,15,1038.66
2011,11,30,11,16,1038.74
2011,11,30,11,17,1038.71
2011,11,30,11,18,1038.72
2011,11,30,11,19,1038.62
2011,11,30,11,20,1038.65
2011,11,30,11,21,1038.57
2011,11,30,11,22,1038.55
2011,11,30,11,23,1038.47
2011,11,30,11,24,1038.47
2011,11,30,11,25,1038.49
2011,11,30,11,26,1038.46
2011,11,30,11,27,1038.56
2011,11,30,11,28,1038.57
2011,11,30,11,29,1038.70
2011,11,30,11,30,1038.64
2011,11,30,11,31,1038.61
2011,11,30,11,32,1038.64
2011,11,30,11,33,1038.65
2011,11,30,11,34,1038.70
2011,11,30,11,35,1038.67
2011,11,30,11,36,1038.64
2011,11,30,11,37,1038.64
2011,11,30,11,38,1038.61
2011,11,30,11,39,1038.62
2011,11,30,11,40,1038.68
2011,11,30,11,41,1038.74
2011,11,30,11,42,1038.73
2011,11,30,11,43,1038.86
2011,11,30,11,44,1038.97
2011,11,30,11,45,1038.95
2011,11,30,11,46,1038.97
2011,11,30,11,47,1038.93
2011,11,30,11,48,1038.89
2011,11,30,11,49,1038.97
2011,11,30,11,50,1038.95
2011,11,30,11,51,1039.00
2011,11,30,11,52,1038.94
2011,11,30,11,53,1038.91
2011,11,30,11,54,1038.91
2011,11,30,11,55,1038.91
2011,11,30,11,56,1038.94
2011,11,30,11,57,1038.93
2011,11,30,11,58,1039.00
2011,11,30,11,59,1038.95
2011,11,30,12,00,1038.97
2011,11,30,12,01,1038.94
2011,11,30,12,02,1038.95
2011,11,30,12,03,1038.99
2011,11,30,12,04,1038.92
2011,11,30,12,05,1038.97
2011,11,30,12,06,1038.94
2011,11,30,12,07,1038.91
2011,11,30,12,08,1038.94
2011,11,30,12,09,1038.94
2011,11,30,12,10,1038.90
2011,11,30,12,11,1038.85
2011,11,30,12,12,1038.87
2011,11,30,12,13,1038.85
2011,11,30,12,14,1038.95
2011,11,30,12,15,1038.97
2011,11,30,12,16,1038.90
2011,11,30,12,17,1038.82
2011,11,30,12,18,1038.88
2011,11,30,12,19,1038.87
2011,11,30,12,20,1038.83
2011,11,30,12,21,1038.78
2011,11,30,12,22,1038.78
2011,11,30,12,23,1038.78
2011,11,30,12,24,1038.78
2011,11,30,12,25,1038.77
2011,11,30,12,26,1038.74
2011,11,30,12,27,1038.74
2011,11,30,12,28,1038.76
2011,11,30,12,29,1038.93
2011,11,30,12,30,1039.01
2011,11,30,12,31,1039.02
2011,11,30,12,32,1039.04
2011,11,30,12,33,1039.01
2011,11,30,12,34,1038.97
2011,11,30,12,35,1038.90
2011,11,30,12,36,1038.85
2011,11,30,12,37,1038.93
2011,11,30,12,38,1038.86
2011,11,30,12,39,1038.80
2011,11,30,12,40,1038.94
2011,11,30,12,41,1038.91
2011,11,30,12,42,1038.93
2011,11,30,12,43,1038.87
2011,11,30,12,44,1038.83
2011,11,30,12,45,1038.78
2011,11,30,12,46,1038.80
2011,11,30,12,47,1038.78
2011,11,30,12,48,1038.80
2011,11,30,12,49,1038.72
2011,11,30,12,50,1038.78
2011,11,30,12,51,1038.78
2011,11,30,12,52,1038.78
2011,11,30,12,53,1038.81
2011,11,30,12,54,1038.77
2011,11,30,12,55,1038.76
2011,11,30,12,56,1038.84
2011,11,30,12,57,1038.84
2011,11,30,12,58,1038.80
2011,11,30,12,59,1038.72
2011,11,30,13,00,1038.77
2011,11,30,13,01,1038.74
2011,11,30,13,02,1038.71
2011,11,30,13,03,1038.71
2011,11,30,13,04,1038.71
2011,11,30,13,05,1038.75
2011,11,30,13,06,1038.83
2011,11,30,13,07,1038.95
2011,11,30,13,08,1038.99
2011,11,30,13,09,1039.01
2011,11,30,13,10,1039.01
2011,11,30,13,11,1038.98
2011,11,30,13,12,1038.99
2011,11,30,13,13,1039.05
2011,11,30,13,14,1039.08
2011,11,30,13,15,1039.10
2011,11,30,13,16,1039.05
2011,11,30,13,17,1039.05
2011,11,30,13,18,1039.08
2011,11,30,13,19,1039.05
2011,11,30,13,20,1039.03
2011,11,30,13,21,1038.94
2011,11,30,13,22,1038.94
2011,11,30,13,23,1038.94
2011,11,30,13,24,1038.98
2011,11,30,13,25,1038.99
2011,11,30,13,26,1038.94
2011,11,30,13,27,1039.11
2011,11,30,13,28,1039.12
2011,11,30,13,29,1039.17
2011,11,30,13,30,1039.25
2011,11,30,13,31,1039.22
2011,11,30,13,32,1039.25
2011,11,30,13,33,1039.22
2011,11,30,13,34,1039.21
2011,11,30,13,35,1039.18
2011,11,30,13,36,1039.15
2011,11,30,13,37,1039.19
2011,11,30,13,38,1039.22
2011,11,30,13,39,1039.26
2011,11,30,13,40,1039.33
2011,11,30,13,41,1039.38
2011,11,30,13,42,1039.35
2011,11,30,13,43,1039.31
2011,11,30,13,44,1039.23
2011,11,30,13,45,1039.28
2011,11,30,13,46,1039.28
2011,11,30,13,47,1039.29
2011,11,30,13,48,1039.32
2011,11,30,13,49,1039.31
2011,11,30,13,50,1039.25
2011,11,30,13,51,1039.25
2011,11,30,13,52,1039.24
2011,11,30,13,53,1039.18
2011,11,30,13,54,1039.22
2011,11,30,13,55,1039.22
2011,11,30,13,56,1039.22
2011,11,30,13,57,1039.21
2011,11,30,13,58,1039.19
2011,11,30,13,59,1039.22
2011,11,30,14,00,1039.22
2011,11,30,14,01,1039.21
2011,11,30,14,02,1039.15
2011,11,30,14,03,1039.14
2011,11,30,14,04,1039.12
2011,11,30,14,05,1039.14
2011,11,30,14,06,1039.12
2011,11,30,14,07,1039.16
2011,11,30,14,08,1039.22
2011,11,30,14,09,1039.23
2011,11,30,14,10,1039.28
2011,11,30,14,11,1039.29
2011,11,30,14,12,1039.32
2011,11,30,14,13,1039.35
2011,11,30,14,14,1039.38
2011,11,30,14,15,1039.38
2011,11,30,14,16,1039.42
2011,11,30,14,17,1039.47
2011,11,30,14,18,1039.56
2011,11,30,14,19,1039.60
2011,11,30,14,20,1039.66
2011,11,30,14,21,1039.69
2011,11,30,14,22,1039.65
2011,11,30,14,23,1039.62
2011,11,30,14,24,1039.63
2011,11,30,14,25,1039.66
2011,11,30,14,26,1039.68
2011,11,30,14,27,1039.63
2011,11,30,14,28,1039.69
2011,11,30,14,29,1039.66
2011,11,30,14,30,1039.66
2011,11,30,14,31,1039.69
2011,11,30,14,32,1039.72
2011,11,30,14,33,1039.76
2011,11,30,14,34,1039.76
2011,11,30,14,35,1039.76
2011,11,30,14,36,1039.79
2011,11,30,14,37,1039.82
2011,11,30,14,38,1039.79
2011,11,30,14,39,1039.80
2011,11,30,14,40,1039.85
2011,11,30,14,41,1039.82
2011,11,30,14,42,1039.81
2011,11,30,14,43,1039.75
2011,11,30,14,44,1039.70
2011,11,30,14,45,1039.83
2011,11,30,14,46,1039.85
2011,11,30,14,47,1039.82
2011,11,30,14,48,1039.82
2011,11,30,14,49,1039.83
2011,11,30,14,50,1039.88
2011,11,30,14,51,1039.79
2011,11,30,14,52,1039.77
2011,11,30,14,53,1039.82
2011,11,30,14,54,1039.86
2011,11,30,14,55,1039.90
2011,11,30,14,56,1039.93
2011,11,30,14,57,1039.93
2011,11,30,14,58,1039.93
2011,11,30,14,59,1039.90
2011,11,30,15,00,1039.93
2011,11,30,15,01,1039.96
2011,11,30,15,02,1039.93
2011,11,30,15,03,1039.96
2011,11,30,15,04,1039.99
2011,11,30,15,05,1039.96
2011,11,30,15,06,1039.96
2011,11,30,15,07,1039.96
2011,11,30,15,08,1039.97
2011,11,30,15,09,1040.03
2011,11,30,15,10,1040.03
2011,11,30,15,11,1040.03
2011,11,30,15,12,1040.03
2011,11,30,15,13,1040.03
2011,11,30,15,14,1040.04
2011,11,30,15,15,1040.13
2011,11,30,15,16,1040.10
2011,11,30,15,17,1040.11
2011,11,30,15,18,1040.17
2011,11,30,15,19,1040.24
2011,11,30,15,20,1040.27
2011,11,30,15,21,1040.30
2011,11,30,15,22,1040.30
2011,11,30,15,23,1040.31
2011,11,30,15,24,1040.37
2011,11,30,15,25,1040.36
2011,11,30,15,26,1040.31
2011,11,30,15,27,1040.38
2011,11,30,15,28,1040.43
2011,11,30,15,29,1040.39
2011,11,30,15,30,1040.33
2011,11,30,15,31,1040.34
2011,11,30,15,32,1040.39
2011,11,30,15,33,1040.34
2011,11,30,15,34,1040.40
2011,11,30,15,35,1040.40
2011,11,30,15,36,1040.40
2011,11,30,15,37,1040.43
2011,11,30,15,38,1040.40
2011,11,30,15,39,1040.37
2011,11,30,15,40,1040.37
2011,11,30,15,41,1040.36
2011,11,30,15,42,1040.33
2011,11,30,15,43,1040.30
2011,11,30,15,44,1040.31
2011,11,30,15,45,1040.36
2011,11,30,15,46,1040.33
2011,11,30,15,47,1040.30
2011,11,30,15,48,1040.33
2011,11,30,15,49,1040.40
2011,11,30,15,50,1040.54
2011,11,30,15,51,1040.59
2011,11,30,15,52,1040.71
2011,11,30,15,53,1040.73
2011,11,30,15,54,1040.68
2011,11,30,15,55,1040.72
2011,11,30,15,56,1040.77
2011,11,30,15,57,1040.74
2011,11,30,15,58,1040.77
2011,11,30,15,59,1040.81